Regional Weather Roundup
Issued by NWS

Home | Current Version | Previous Version | Text Only | Print | Product List | Glossary Off
Versions: 1 2 3 4 5 6 7 8 9 10 11 12 13 14 15 16 17 18 19 20 21 22 23 24 25 26 27 28 29 30 31 32 33 34 35 36 37 38 39 40 41 42 43 44 45 46 47 48 49 50

000
ASUS45 KTFX 011310
RWRMT
MONTANA REGIONAL WEATHER ROUNDUP
NATIONAL WEATHER SERVICE GREAT FALLS MT
700 AM MDT MON JUN 01 2015

NOTE: "FAIR" INDICATES FEW OR NO CLOUDS BELOW 12000 FEET WITH NO
SIGNIFICANT WEATHER AND/OR OBSTRUCTIONS TO VISIBILITY.

MTZ001>007-043-011400-
WEST OF THE DIVIDE

CITY           SKY/WX    TMP DP  RH WIND       PRES   REMARKS
KALISPELL      PTSUNNY   56  45  66 N8        29.87S
MISSOULA       PTSUNNY   54  52  93 CALM      29.91R
BUTTE          CLOUDY    48  45  89 N3        30.01R
MULLAN PASS    PTCLDY    55  40  56 SE6       29.96F
DEER LODGE       N/A     52  48  87 CALM      30.00F
EUREKA           N/A     52  46  82 CALM      29.90S
HAMILTON         N/A     54  48  82 S5        29.91F
LIBBY            N/A     50  46  87 CALM      29.89R
PLAINS           N/A     56  51  83 CALM      29.87S
RONAN            N/A     57  53  86 NE2       29.92S
$$

MTZ008-052>055-011400-
SOUTHWEST MONTANA

CITY           SKY/WX    TMP DP  RH WIND       PRES   REMARKS
BOZEMAN        MOSUNNY   52  49  89 NW3       29.94R
DILLON         PTSUNNY   50  46  86 S3        29.95F
W YELLOWSTONE  CLOUDY    45  45 100 NW8       30.11R
THREE FORKS      N/A     54  19  25 CALM      29.94S
TWIN BRIDGES     N/A     51  44  77 NE3       29.95S
$$

MTZ009-010-012-014-046-048-049-054-011400-
EAST SLOPES AND CENTRAL MONTANA

CITY           SKY/WX    TMP DP  RH WIND       PRES   REMARKS
CUT BANK       PTSUNNY   53  44  71 NW14      29.90S
GREAT FALLS    CLOUDY    62  50  64 SW7       29.89S
MALMSTROM AFB  CLOUDY    62  50  66 NW6       29.90S
HELENA         PTSUNNY   58  50  75 SW5       29.92S
CONRAD           N/A     59  51  74 W6        29.93R
$$

MTZ011-013-016-021-045-047-050-051-011400-
NORTH CENTRAL MONTANA

CITY           SKY/WX    TMP DP  RH WIND       PRES   REMARKS
HAVRE          MOSUNNY   58  51  78 SW6       29.82S
LEWISTOWN      MOSUNNY   59  49  69 CALM      29.90S
N BAR RANCH    FAIR      63  45  51 W8        29.93S
CHINOOK          N/A     61  52  72 NW5       29.82R
FORT BENTON      N/A     61  52  72 SW6       29.89R
$$

MTZ017>020-022>027-061-062-011400-
NORTHEAST MONTANA

CITY           SKY/WX    TMP DP  RH WIND       PRES   REMARKS
GLASGOW        SUNNY     61  53  75 E8        29.79S
JORDAN           N/A     62  52  69 W7        29.81F
SIDNEY         PTSUNNY   61  52  72 SE6       29.84S
WOLF POINT     MOSUNNY   58  52  80 E7        29.81S
MALTA            N/A     59  53  80 CALM      29.77S
PLENTYWOOD       N/A     57  52  82 SW7       29.84R
POPLAR           N/A     63  55  77 E3        29.81S
$$

MTZ028>42-056>058-011400-
SOUTHCENTRAL AND SOUTHEAST MONTANA

CITY           SKY/WX    TMP DP  RH WIND       PRES   REMARKS
BAKER          PTSUNNY   58  52  80 SE9       29.90R
BILLINGS       PTSUNNY   60  52  74 W8        29.90R
LIVINGSTON     MOSUNNY   52  47  83 N9        29.94S
MILES CITY     PTSUNNY   61  55  81 S7        29.85R
BIG TIMBER       N/A     57  48  72 SW5       29.93F
LAUREL           N/A     57  51  80 CALM      29.90S
ROUNDUP          N/A     59  51  74 S12       29.80F
$$

REGIONAL REPORTS...DAKOTAS

CITY           SKY/WX    TMP DP  RH WIND       PRES   REMARKS
WILLISTON      PTSUNNY   57  50  77 SE8       29.85S
MINOT          CLOUDY    55  47  74 SE13      29.93F
DICKINSON      PTSUNNY   53  48  83 S15       29.90S
BEACH          PTSUNNY   55  55 100 S14       29.88R
CROSBY         FAIR      55  54  94 S18G25    29.83S
WATFORD CITY   FAIR      54  50  87 SE8       29.85S
BISMARCK       PTSUNNY   54  49  83 S12       29.99F
GRAND FORKS    CLOUDY    54  42  64 SE17G23   30.11F
FARGO          CLOUDY    56  44  64 SE14G24   30.13F
BUFFALO SD       N/A     54  51  90 SE10      29.88S
RAPID CITY     MOSUNNY   58  53  84 CALM      29.97S
$$

REGIONAL REPORTS...WYOMING/IDAHO/WASHINGTON

CITY           SKY/WX    TMP DP  RH WIND       PRES   REMARKS
GILLETTE       MOSUNNY   59  52  77 S12       29.98S
SHERIDAN       CLOUDY    55  50  83 N7        29.93R
BUFFALO WY     CLOUDY    61  47  59 S3        29.99S
CODY           CLOUDY    61  43  51 SE9       29.99R
YELLOWSTONE LA   N/A     46  40  79 W3        30.18S
IDAHO FALLS    SUNNY     55  48  77 NE7       29.92S
SALMON         CLOUDY    54  48  82 CALM      29.91S
BOISE          LGT RAIN  70  51  51 NE8       29.87R
SPOKANE        CLOUDY    63  50  62 NE3       29.82R
$$

REGIONAL REPORTS...ALBERTA

CITY           SKY/WX    TMP DP  RH WIND       PRES   REMARKS
EDMONTON       SUNNY     50  45  81 N5        29.87R
CALGARY        MOSUNNY   50  43  76 CALM      29.95R
LETHBRIDGE     PTSUNNY   50  45  81 NW6       29.93R
MEDICINE HAT   PTSUNNY   55  46  71 N7        29.87R
$$

REGIONAL REPORTS...SASKATCHEWAN

CITY           SKY/WX    TMP DP  RH WIND       PRES   REMARKS
SWIFT CURRENT  SUNNY     59  52  77 NW7       29.81R
REGINA         PTSUNNY   55  50  82 SE16G28   29.80F
SASKATOON      MOSUNNY   55  52  88 W9        29.80R
$$



USA.gov is the U.S. government's official web portal to all federal, state and local government web resources and services.